{"data":{"norad_id":62463,"intl_designator":"2024-254B","name":"STARLINK-11455 [DTC]","alt_names":[],"object_type":"PAYLOAD","status":"ACTIVE","operator":null,"country":"US","launch_date":"2024-12-31","launch_site_code":"AFETR","launch_vehicle":null,"mission":null,"orbit_class":"UNKNOWN","rcs_meters":null,"size_class":null,"mass_kg":null,"dimensions":null,"purposes":["comms"],"wikipedia_slug":null,"has_3d_model":false,"image_url":null,"decayed_at":null,"tle_current":{"epoch":"2026-05-25T05:29:14.114976Z","epoch_age_seconds":49247,"freshness":"FRESH","line1":"1 62463U 24254B   26145.22863559  .00182313  00000+0  13920-2 0  9990","line2":"2 62463  42.9991 122.0941 0001145 263.0154  97.0583 15.70862774 81433","mean_motion":15.70862774,"eccentricity":0.0001145,"inclination_deg":42.9991,"raan_deg":122.0941,"arg_perigee_deg":263.0154,"mean_anomaly_deg":97.0583,"bstar":0.001392,"rev_number":8143,"period_min":91.669369459512,"perigee_km":355.65886208268,"apogee_km":357.20107791881,"semimajor_km":6734.5669700007,"source":"CELESTRAK","updated_at":"2026-05-25T13:38:19.689732Z"}}}